Home   Weather   Vantaa   Past weeks

Flag for Finland Past Weather in Vantaa, Finland — Yesterday and Last 2 Weeks

Now
28 °F

Clear.


Feels Like: 21 °F
Forecast: 31 / 37 °F
Wind: 7 mph from West

Location: Helsinki-Vantaa

Current Time: Jan 21, 2017 at 2:01:50 am

Latest Report: Jan 21, 2017 at 1:20 am


Visibility: 10 mi

Pressure: 30.01 "Hg

Humidity: 93%

Dew Point: 27 °F

Location of VantaaLocation

Past Weather in Vantaa — Graph

°F

Vantaa Temperature Yesterday

Maximum temperature yesterday: 36 °F (at 12:20 am)
Minimum temperature yesterday: 27 °F (at 7:20 am)
Average temperature yesterday: 30 °F

High & Low Weather Summary for the Past Weeks

 TemperatureHumidityPressure
High37 °F (Jan 10, 7:50 am)100% (Jan 8, 5:50 am)30.66 "Hg (Jan 8, 5:50 am)
Low-15 °F (Jan 6, 8:20 am)56% (Jan 20, 12:50 am)29.03 "Hg (Jan 13, 3:20 am)
Average27 °F89%29.90 "Hg
* Reported Jan 6 12:20 am — Jan 21 12:50 am, Vantaa, Weather by CustomWeather, © 2017

Note: Actual official high and low records may vary slightly from our data, if they occured in-between our weather recording intervals... More about our weather records

Advertising

Vantaa Weather History for the Previous 24 Hours

Scroll right to see more
 ConditionsComfort  
Time TempWeatherWind HumidityBarometerVisibility
12:50 am
Sat, Jan 21
28 °FClear.7 mph93%30.01 "Hg10 mi
12:20 am30 °FClear.8 mph93%30.01 "Hg10 mi
11:50 pm
Fri, Jan 20
30 °FClear.7 mph93%30.01 "Hg10 mi
11:20 pm30 °FClear.8 mph93%30.01 "Hg10 mi
10:50 pm30 °FPassing clouds.7 mph93%29.98 "HgN/A
10:20 pm30 °FPassing clouds.6 mph93%29.98 "HgN/A
9:50 pm32 °FPassing clouds.8 mph93%29.98 "HgN/A
9:20 pm32 °FPassing clouds.7 mph93%29.95 "HgN/A
8:50 pm32 °FPassing clouds.10 mph93%29.95 "HgN/A
8:20 pm32 °FPassing clouds.9 mph93%29.92 "HgN/A
7:50 pm32 °FPartly cloudy.10 mph93%29.92 "HgN/A
7:20 pm32 °FLight freezing rain. Partly cloudy.6 mph93%29.92 "Hg3 mi
6:50 pm32 °FLight freezing rain. Passing clouds.3 mph93%29.92 "Hg2 mi
6:20 pm32 °FLight freezing rain. Passing clouds.5 mph93%29.92 "Hg2 mi
5:50 pm32 °FLight freezing rain. Passing clouds.3 mph93%29.92 "Hg2 mi
5:20 pm32 °FLight freezing rain. Passing clouds.3 mph93%29.92 "Hg2 mi
4:50 pm32 °FPassing clouds.7 mph93%29.92 "HgN/A
4:20 pm32 °FLight snow. Passing clouds.5 mph93%29.92 "HgN/A
3:50 pm32 °FLight snow. Partly sunny.5 mph93%29.92 "HgN/A
3:20 pm30 °FLight snow. Broken clouds.7 mph100%29.92 "Hg3 mi
2:50 pm30 °FLight snow. Partly sunny.8 mph100%29.95 "Hg2 mi
2:20 pm30 °FLight snow. Partly sunny.7 mph93%29.98 "Hg2 mi
1:50 pm32 °FLight snow. Partly sunny.7 mph87%29.98 "Hg4 mi
1:20 pm32 °FPartly sunny.8 mph87%29.98 "HgN/A
12:50 pm32 °FSunny.10 mph80%30.01 "Hg10 mi
12:20 pm30 °FSunny.10 mph86%30.01 "Hg10 mi
11:50 am30 °FSunny.6 mph80%30.04 "Hg10 mi
11:20 am28 °FSunny.2 mph86%30.04 "Hg10 mi
10:50 am28 °FSunny.6 mph86%30.04 "Hg10 mi
10:20 am28 °FSunny.8 mph86%30.07 "Hg10 mi
9:50 am28 °FSunny.8 mph86%30.07 "Hg10 mi
9:20 am27 °FSunny.7 mph86%30.07 "Hg10 mi
8:50 am27 °FClear.8 mph86%30.07 "Hg10 mi
8:20 am27 °FClear.8 mph86%30.07 "Hg10 mi
7:50 am27 °FClear.8 mph86%30.07 "Hg10 mi
7:20 am27 °FClear.8 mph86%30.07 "Hg10 mi
6:50 am28 °FClear.8 mph80%30.07 "Hg10 mi
6:20 am28 °FClear.8 mph80%30.07 "Hg10 mi
5:50 am28 °FClear.9 mph80%30.07 "Hg10 mi
5:20 am28 °FClear.8 mph80%30.07 "Hg10 mi
4:50 am28 °FClear.9 mph74%30.07 "Hg10 mi
4:20 am28 °FClear.8 mph74%30.07 "Hg10 mi
3:50 am30 °FClear.9 mph75%30.04 "Hg10 mi
3:20 am30 °FClear.9 mph75%30.04 "Hg10 mi
2:50 am32 °FClear.12 mph69%30.04 "Hg10 mi
2:20 am32 °FClear.9 mph64%30.04 "Hg10 mi
Weather by CustomWeather, © 2017

See weather overviewHow to use our weather pages